Weather History for Madison, WI

Change the Weather History Date:

Monday, July 8, 2013

  Actual Average Record
Temperature  
Mean Temperature 80 °F 72 °F  
Max Temperature 88 °F 82 °F 100 °F (1936)
Min Temperature 72 °F 61 °F 43 °F (1972)
Degree Days  
Heating Degree Days 0 0  
Month to date heating degree days 2 0  
Since 1 June heating degree days 54 60  
Since 1 July heating degree days 2 0  
Cooling Degree Days 15 7  
Month to date cooling degree days 60 54  
Year to date cooling degree days 250 204  
Since 1 June cooling degree days 197 174  
Growing Degree Days 30 (Base 50)    
Moisture  
Dew Point 71 °F    
Average Humidity 73    
Maximum Humidity 87    
Minimum Humidity 59    
Precipitation  
Precipitation 0.53 in 0.15 in 2.60 in (1949)
Month to date precipitation 0.53 1.12  
Year to date precipitation 31.48 17.49  
Snow  
Snow 0.00 in 0.00 in 0.00 in ()
Month to date snowfall 0.0 0.0  
Since 1 June snowfall 0.0 0.0  
Since 1 July snowfall 0.0 0.0  
Snow Depth 0.00 in    
Sea Level Pressure  
Sea Level Pressure 29.93 in    
Wind  
Wind Speed 6 mph (SW)    
Max Wind Speed 15 mph    
Max Gust Speed 29 mph    
Visibility 9 miles    
Events Rain , Thunderstorm    
T = Trace of Precipitation, MM = Missing Value Source: NWS Daily Summary

Daily Weather History Graph

Daily Weather History Graph

Search for Another Location

Airport:

Trip Planner

Search our weather history database for the weather conditions in past years. The results will help you decide how hot, cold, wet, or windy it might be!

Date:

Astronomy

Jul. 08, 2013 Rise Set
Actual Time 5:26 AM CDT 8:38 PM CDT
Civil Twilight 4:51 AM CDT 9:13 PM CDT
Nautical Twilight 4:06 AM CDT 9:58 PM CDT
Astronomical Twilight 3:11 AM CDT 10:52 PM CDT
Moon 5:57 AM CDT (7/8) 8:37 PM CDT (7/8)
Length of Visible Light 16h 22m
Length of Day
15h 12m
New Moon, 0% of the Moon is Illuminated
Jul 8
New Moon
Jul 15
First Quarter
Jul 22
Full
Jul 29
Last Quarter
Aug 6
New

Hourly Weather History & Observations

Time (CDT) Temp. Heat Index Dew Point Humidity Pressure Visibility Wind Dir Wind Speed Gust Speed Precip Events Conditions
12:53 AM 79.0 °F - 70.0 °F 74% 29.92 in 10.0 mi South 9.2 mph - N/A   Clear
1:53 AM 78.1 °F - 70.0 °F 76% 29.91 in 10.0 mi South 9.2 mph - N/A   Clear
2:53 AM 79.0 °F - 68.0 °F 69% 29.89 in 10.0 mi South 9.2 mph 16.1 mph N/A   Overcast
3:53 AM 78.1 °F - 68.0 °F 71% 29.89 in 10.0 mi SW 10.4 mph 20.7 mph N/A   Mostly Cloudy
4:09 AM 78.8 °F - 68.0 °F 69% 29.92 in 10.0 mi SW 10.4 mph 17.3 mph 0.00 in Rain , Thunderstorm Light Thunderstorms and Rain
4:17 AM 75.2 °F - 69.8 °F 83% 29.93 in 1.5 mi WSW 15.0 mph 28.8 mph 0.04 in Rain , Thunderstorm Heavy Thunderstorms and Rain
4:32 AM 73.4 °F - 69.8 °F 88% 29.94 in 3.0 mi Variable 6.9 mph - 0.39 in Rain , Thunderstorm Light Thunderstorms and Rain
4:47 AM 73.4 °F - 69.8 °F 88% 29.93 in 2.5 mi SW 6.9 mph - 0.41 in Rain Rain
4:53 AM 73.0 °F - 70.0 °F 90% 29.91 in 2.0 mi SW 8.1 mph - 0.48 in Rain Light Rain
5:02 AM 73.4 °F - 69.8 °F 88% 29.92 in 10.0 mi SW 5.8 mph - 0.00 in Rain Light Rain
5:53 AM 73.0 °F - 70.0 °F 90% 29.92 in 10.0 mi SW 4.6 mph - 0.00 in Rain Light Rain
6:16 AM 73.4 °F - 69.8 °F 88% 29.94 in 10.0 mi SSW 3.5 mph - 0.00 in Rain Light Rain
6:34 AM 73.4 °F - 69.8 °F 88% 29.94 in 10.0 mi SSW 5.8 mph - 0.00 in Thunderstorm Thunderstorm
6:44 AM 73.4 °F - 69.8 °F 88% 29.94 in 10.0 mi SW 6.9 mph - 0.00 in Thunderstorm Thunderstorm
6:50 AM 73.4 °F - 69.8 °F 88% 29.95 in 10.0 mi WSW 4.6 mph - 0.00 in Thunderstorm Thunderstorm
6:53 AM 73.0 °F - 70.0 °F 90% 29.93 in 10.0 mi Variable 4.6 mph - 0.00 in Thunderstorm Thunderstorm
7:06 AM 71.6 °F - 69.8 °F 94% 29.95 in 4.0 mi SW 8.1 mph - 0.02 in Rain , Thunderstorm Light Thunderstorms and Rain
7:13 AM 71.6 °F - 69.8 °F 94% 29.95 in 6.0 mi Variable 6.9 mph - 0.03 in Rain , Thunderstorm Light Thunderstorms and Rain
7:20 AM 71.6 °F - 69.8 °F 94% 29.94 in 5.0 mi SSW 6.9 mph - 0.04 in Rain Light Rain
7:53 AM 73.0 °F - 70.0 °F 90% 29.93 in 10.0 mi Variable 3.5 mph - 0.05 in   Mostly Cloudy
8:53 AM 73.9 °F - 70.0 °F 87% 29.93 in 10.0 mi Variable 6.9 mph - N/A   Scattered Clouds
9:53 AM 77.0 °F - 70.0 °F 79% 29.93 in 10.0 mi SSW 8.1 mph 17.3 mph N/A   Scattered Clouds
10:53 AM 79.0 °F - 70.0 °F 74% 29.93 in 10.0 mi WSW 8.1 mph - N/A   Scattered Clouds
11:39 AM 80.6 °F 84.6 °F 71.6 °F 74% 29.94 in 10.0 mi Variable 6.9 mph - N/A   Mostly Cloudy
11:53 AM 82.0 °F 86.7 °F 72.0 °F 71% 29.92 in 10.0 mi Variable 6.9 mph - N/A   Mostly Cloudy
12:29 PM 82.4 °F 87.2 °F 71.6 °F 70% 29.93 in 10.0 mi SW 6.9 mph - N/A   Scattered Clouds
12:53 PM 84.0 °F 89.6 °F 72.0 °F 67% 29.91 in 10.0 mi SW 8.1 mph - N/A   Scattered Clouds
1:53 PM 86.0 °F 93.0 °F 73.0 °F 65% 29.91 in 10.0 mi SW 6.9 mph - N/A   Scattered Clouds
2:53 PM 87.1 °F 92.8 °F 71.1 °F 59% 29.91 in 10.0 mi WNW 8.1 mph - N/A   Mostly Cloudy
3:53 PM 86.0 °F 95.1 °F 75.0 °F 70% 29.91 in 10.0 mi NNW 9.2 mph - N/A   Partly Cloudy
4:53 PM 87.1 °F 95.4 °F 73.9 °F 65% 29.91 in 10.0 mi NW 8.1 mph - N/A   Partly Cloudy
5:53 PM 87.1 °F 94.5 °F 73.0 °F 63% 29.90 in 10.0 mi WNW 5.8 mph - N/A   Partly Cloudy
6:53 PM 88.0 °F 95.6 °F 73.0 °F 61% 29.91 in 10.0 mi NW 3.5 mph - N/A   Partly Cloudy
7:53 PM 82.9 °F 89.4 °F 73.9 °F 74% 29.93 in 9.0 mi NE 5.8 mph - N/A   Scattered Clouds
8:53 PM 79.0 °F - 73.0 °F 82% 29.94 in 9.0 mi Calm Calm - N/A   Scattered Clouds
9:53 PM 78.1 °F - 72.0 °F 81% 29.96 in 10.0 mi ENE 3.5 mph - N/A   Partly Cloudy
10:53 PM 75.9 °F - 72.0 °F 87% 29.96 in 10.0 mi Calm Calm - N/A   Partly Cloudy
11:53 PM 75.0 °F - 71.1 °F 87% 29.98 in 8.0 mi Calm Calm - N/A   Clear